Saint Bonnet de Bellac- Haute Vienne - France
Donnes mto: dimanche, 06/11/2011
Date Horaire Temp. E. Hum. E. P.atmo. Pluie Vent Direction Direction Ensoleilleme Solaire P. de rose Temp au vent Rafales
06/11/2011 00:00 12,1 C 95 % 1007,0 hPa 0,0 mm 3,6 km/h (1 Bft) N 360 0 min 0 W/m 11,3 C 12,1 C 4,3 km/h (1 Bft)
06/11/2011 00:05 12,1 C 94 % 1007,0 hPa 0,3 mm 8,6 km/h (2 Bft) N-NE 22 0 min 0 W/m 11,2 C 12,1 C 10,8 km/h (2 Bft)
06/11/2011 00:10 12,1 C 94 % 1007,1 hPa 0,0 mm 3,2 km/h (1 Bft) N-NE 22 0 min 0 W/m 11,2 C 12,1 C 10,1 km/h (2 Bft)
06/11/2011 00:15 12,1 C 94 % 1007,2 hPa 0,0 mm 2,5 km/h (1 Bft) N 360 0 min 0 W/m 11,2 C 12,1 C 6,5 km/h (2 Bft)
06/11/2011 00:20 12,1 C 95 % 1007,3 hPa 0,0 mm 4,0 km/h (1 Bft) N-NE 22 0 min 0 W/m 11,3 C 12,1 C 11,9 km/h (2 Bft)
06/11/2011 00:25 12,1 C 94 % 1007,3 hPa 0,0 mm 9,4 km/h (2 Bft) N 360 0 min 0 W/m 11,2 C 12,1 C 15,5 km/h (3 Bft)
06/11/2011 00:30 12,1 C 94 % 1007,4 hPa 0,0 mm 6,5 km/h (2 Bft) N-NE 22 0 min 0 W/m 11,2 C 12,1 C 12,6 km/h (3 Bft)
06/11/2011 00:35 12,1 C 95 % 1007,4 hPa 0,0 mm 6,5 km/h (2 Bft) N 360 0 min 0 W/m 11,3 C 12,1 C 11,9 km/h (2 Bft)
06/11/2011 00:40 12,1 C 94 % 1007,5 hPa 0,0 mm 9,7 km/h (2 Bft) NE 45 0 min 0 W/m 11,2 C 12,1 C 17,3 km/h (3 Bft)
06/11/2011 00:45 12,1 C 95 % 1007,5 hPa 0,0 mm 6,8 km/h (2 Bft) N 360 0 min 0 W/m 11,3 C 12,1 C 7,9 km/h (2 Bft)
06/11/2011 00:50 12,1 C 94 % 1007,5 hPa 0,2 mm 5,0 km/h (1 Bft) N-NE 22 0 min 0 W/m 11,2 C 12,1 C 10,1 km/h (2 Bft)
06/11/2011 00:55 12,1 C 95 % 1007,6 hPa 0,3 mm 9,0 km/h (2 Bft) N-NE 22 0 min 0 W/m 11,3 C 12,1 C 9,7 km/h (2 Bft)
06/11/2011 01:00 12,1 C 95 % 1007,4 hPa 0,0 mm 7,2 km/h (2 Bft) NE 45 0 min 0 W/m 11,3 C 12,1 C 11,5 km/h (2 Bft)
06/11/2011 01:05 12,1 C 95 % 1007,4 hPa 0,0 mm 3,6 km/h (1 Bft) N-NE 22 0 min 0 W/m 11,3 C 12,1 C 4,0 km/h (1 Bft)
06/11/2011 01:10 12,1 C 95 % 1007,4 hPa 0,0 mm 1,4 km/h (1 Bft) N 360 0 min 0 W/m 11,3 C 12,1 C 4,0 km/h (1 Bft)
06/11/2011 01:15 12,1 C 95 % 1007,4 hPa 0,3 mm 7,2 km/h (2 Bft) N 360 0 min 0 W/m 11,3 C 12,1 C 12,2 km/h (2 Bft)
06/11/2011 01:20 12,1 C 95 % 1007,5 hPa 0,0 mm 2,9 km/h (1 Bft) NE 45 0 min 0 W/m 11,3 C 12,1 C 6,5 km/h (2 Bft)
06/11/2011 01:25 12,1 C 95 % 1007,5 hPa 0,0 mm 1,4 km/h (1 Bft) N 360 0 min 0 W/m 11,3 C 12,1 C 7,2 km/h (2 Bft)
06/11/2011 01:30 12,1 C 95 % 1007,5 hPa 0,0 mm 5,0 km/h (1 Bft) N 360 0 min 0 W/m 11,3 C 12,1 C 8,3 km/h (2 Bft)
06/11/2011 01:35 12,1 C 95 % 1007,4 hPa 0,0 mm 4,0 km/h (1 Bft) N-NE 22 0 min 0 W/m 11,3 C 12,1 C 11,9 km/h (2 Bft)
06/11/2011 01:40 12,1 C 95 % 1007,4 hPa 0,0 mm 4,3 km/h (1 Bft) N 360 0 min 0 W/m 11,3 C 12,1 C 7,2 km/h (2 Bft)
06/11/2011 01:45 12,1 C 95 % 1007,4 hPa 0,0 mm 7,2 km/h (2 Bft) N-NE 22 0 min 0 W/m 11,3 C 12,1 C 12,2 km/h (2 Bft)
06/11/2011 01:50 12,1 C 95 % 1007,3 hPa 0,0 mm 3,6 km/h (1 Bft) N-NE 22 0 min 0 W/m 11,3 C 12,1 C 4,3 km/h (1 Bft)
06/11/2011 01:55 12,1 C 95 % 1007,4 hPa 0,0 mm 3,2 km/h (1 Bft) N 360 0 min 0 W/m 11,3 C 12,1 C 3,2 km/h (1 Bft)
06/11/2011 02:02 12,1 C 95 % 1007,3 hPa 0,0 mm 7,2 km/h (2 Bft) N 360 0 min 0 W/m 11,3 C 12,1 C 11,5 km/h (2 Bft)
06/11/2011 02:05 12,1 C 95 % 1007,3 hPa 0,0 mm 1,8 km/h (1 Bft) N 360 0 min 0 W/m 11,3 C 12,1 C 7,6 km/h (2 Bft)
06/11/2011 02:10 12,0 C 95 % 1007,2 hPa 0,0 mm 0,7 km/h (0 Bft) N-NE 22 0 min 0 W/m 11,2 C 12,0 C 4,3 km/h (1 Bft)
06/11/2011 02:15 12,0 C 95 % 1007,3 hPa 0,0 mm 1,8 km/h (1 Bft) N 360 0 min 0 W/m 11,2 C 12,0 C 3,6 km/h (1 Bft)
06/11/2011 02:20 12,0 C 95 % 1007,4 hPa 0,0 mm 0,7 km/h (0 Bft) N-NE 22 0 min 0 W/m 11,2 C 12,0 C 3,6 km/h (1 Bft)
06/11/2011 02:25 12,1 C 95 % 1007,3 hPa 0,0 mm 0,7 km/h (0 Bft) N-NE 22 0 min 0 W/m 11,3 C 12,1 C 4,0 km/h (1 Bft)
06/11/2011 02:30 12,1 C 95 % 1007,2 hPa 0,0 mm 1,8 km/h (1 Bft) N 360 0 min 0 W/m 11,3 C 12,1 C 1,8 km/h (1 Bft)
06/11/2011 02:35 12,1 C 95 % 1007,3 hPa 0,0 mm 4,3 km/h (1 Bft) N 360 0 min 0 W/m 11,3 C 12,1 C 4,3 km/h (1 Bft)
06/11/2011 02:40 12,1 C 95 % 1007,4 hPa 0,0 mm 2,5 km/h (1 Bft) N-NE 22 0 min 0 W/m 11,3 C 12,1 C 3,2 km/h (1 Bft)
06/11/2011 02:45 12,1 C 95 % 1007,4 hPa 0,0 mm 0,0 km/h (0 Bft) N-NO 337 0 min 0 W/m 11,3 C 12,1 C 3,2 km/h (1 Bft)
06/11/2011 02:50 12,1 C 95 % 1007,4 hPa 0,0 mm 1,4 km/h (1 Bft) N 360 0 min 0 W/m 11,3 C 12,1 C 4,7 km/h (1 Bft)
06/11/2011 02:55 12,1 C 95 % 1007,5 hPa 0,0 mm 7,6 km/h (2 Bft) N 360 0 min 0 W/m 11,3 C 12,1 C 8,3 km/h (2 Bft)
06/11/2011 03:00 12,1 C 95 % 1007,6 hPa 0,0 mm 6,1 km/h (2 Bft) N-NE 22 0 min 0 W/m 11,3 C 12,1 C 8,3 km/h (2 Bft)
06/11/2011 03:05 12,1 C 95 % 1007,6 hPa 0,3 mm 0,7 km/h (0 Bft) N-NO 337 0 min 0 W/m 11,3 C 12,1 C 4,0 km/h (1 Bft)
06/11/2011 03:10 12,1 C 95 % 1007,7 hPa 0,0 mm 1,1 km/h (1 Bft) N-NE 22 0 min 0 W/m 11,3 C 12,1 C 3,6 km/h (1 Bft)
06/11/2011 03:15 12,1 C 95 % 1007,7 hPa 0,0 mm 4,0 km/h (1 Bft) N-NE 22 0 min 0 W/m 11,3 C 12,1 C 11,9 km/h (2 Bft)
06/11/2011 03:20 12,1 C 95 % 1007,7 hPa 0,0 mm 0,0 km/h (0 Bft) N-NE 22 0 min 0 W/m 11,3 C 12,1 C 1,4 km/h (1 Bft)
06/11/2011 03:25 12,1 C 95 % 1007,7 hPa 0,0 mm 2,2 km/h (1 Bft) N-NE 22 0 min 0 W/m 11,3 C 12,1 C 2,2 km/h (1 Bft)
06/11/2011 03:30 12,1 C 95 % 1007,7 hPa 0,3 mm 7,6 km/h (2 Bft) N 360 0 min 0 W/m 11,3 C 12,1 C 9,7 km/h (2 Bft)
06/11/2011 03:35 12,1 C 95 % 1007,6 hPa 0,0 mm 3,2 km/h (1 Bft) N 360 0 min 0 W/m 11,3 C 12,1 C 3,6 km/h (1 Bft)
06/11/2011 03:40 12,1 C 95 % 1007,5 hPa 0,0 mm 6,1 km/h (2 Bft) NE 45 0 min 0 W/m 11,3 C 12,1 C 9,0 km/h (2 Bft)
06/11/2011 03:45 12,1 C 95 % 1007,6 hPa 0,0 mm 4,0 km/h (1 Bft) N-NE 22 0 min 0 W/m 11,3 C 12,1 C 6,8 km/h (2 Bft)
06/11/2011 03:50 12,1 C 95 % 1007,5 hPa 0,0 mm 1,8 km/h (1 Bft) N 360 0 min 0 W/m 11,3 C 12,1 C 1,8 km/h (1 Bft)
06/11/2011 03:55 12,1 C 95 % 1007,6 hPa 0,0 mm 3,2 km/h (1 Bft) N 360 0 min 0 W/m 11,3 C 12,1 C 3,2 km/h (1 Bft)
06/11/2011 04:00 12,1 C 95 % 1007,5 hPa 0,0 mm 0,0 km/h (0 Bft) N 360 0 min 0 W/m 11,3 C 12,1 C 0,0 km/h (0 Bft)
06/11/2011 04:05 12,1 C 95 % 1007,6 hPa 0,0 mm 1,1 km/h (1 Bft) N 360 0 min 0 W/m 11,3 C 12,1 C 6,1 km/h (2 Bft)
06/11/2011 04:10 12,1 C 95 % 1007,6 hPa 0,0 mm 3,6 km/h (1 Bft) N-NE 22 0 min 0 W/m 11,3 C 12,1 C 7,9 km/h (2 Bft)
06/11/2011 04:15 12,1 C 95 % 1007,6 hPa 0,0 mm 2,5 km/h (1 Bft) N-NO 337 0 min 0 W/m 11,3 C 12,1 C 2,9 km/h (1 Bft)
06/11/2011 04:20 12,1 C 95 % 1007,7 hPa 0,0 mm 3,6 km/h (1 Bft) N-NE 22 0 min 0 W/m 11,3 C 12,1 C 6,1 km/h (2 Bft)
06/11/2011 04:25 12,1 C 95 % 1007,7 hPa 0,0 mm 2,9 km/h (1 Bft) N 360 0 min 0 W/m 11,3 C 12,1 C 2,9 km/h (1 Bft)
06/11/2011 04:30 12,1 C 95 % 1007,8 hPa 0,0 mm 5,4 km/h (2 Bft) N-NO 337 0 min 0 W/m 11,3 C 12,1 C 12,6 km/h (3 Bft)
06/11/2011 04:35 12,1 C 95 % 1007,8 hPa 0,0 mm 3,6 km/h (1 Bft) N-NE 22 0 min 0 W/m 11,3 C 12,1 C 14,0 km/h (3 Bft)
06/11/2011 04:40 12,1 C 95 % 1007,8 hPa 0,0 mm 3,2 km/h (1 Bft) N 360 0 min 0 W/m 11,3 C 12,1 C 9,7 km/h (2 Bft)
06/11/2011 04:45 12,1 C 95 % 1007,9 hPa 0,0 mm 2,9 km/h (1 Bft) N-NE 22 0 min 0 W/m 11,3 C 12,1 C 8,6 km/h (2 Bft)
06/11/2011 04:50 12,1 C 95 % 1008,0 hPa 0,3 mm 4,3 km/h (1 Bft) N-NE 22 0 min 0 W/m 11,3 C 12,1 C 4,3 km/h (1 Bft)
06/11/2011 04:55 12,1 C 95 % 1008,0 hPa 0,0 mm 3,2 km/h (1 Bft) N-NE 22 0 min 0 W/m 11,3 C 12,1 C 3,2 km/h (1 Bft)
06/11/2011 05:00 12,1 C 95 % 1008,1 hPa 0,0 mm 6,8 km/h (2 Bft) N-NE 22 0 min 0 W/m 11,3 C 12,1 C 7,9 km/h (2 Bft)
06/11/2011 05:05 12,1 C 95 % 1008,2 hPa 0,0 mm 7,9 km/h (2 Bft) N-NE 22 0 min 0 W/m 11,3 C 12,1 C 12,6 km/h (3 Bft)
06/11/2011 05:10 12,1 C 95 % 1008,2 hPa 0,0 mm 5,4 km/h (2 Bft) N-NE 22 0 min 0 W/m 11,3 C 12,1 C 8,6 km/h (2 Bft)
06/11/2011 05:15 12,1 C 95 % 1008,3 hPa 0,3 mm 1,4 km/h (1 Bft) N 360 0 min 0 W/m 11,3 C 12,1 C 4,0 km/h (1 Bft)
06/11/2011 05:20 12,2 C 95 % 1008,3 hPa 0,2 mm 4,3 km/h (1 Bft) NE 45 0 min 0 W/m 11,4 C 12,2 C 6,1 km/h (2 Bft)
06/11/2011 05:25 12,2 C 95 % 1008,4 hPa 0,3 mm 1,4 km/h (1 Bft) N-NE 22 0 min 0 W/m 11,4 C 12,2 C 4,0 km/h (1 Bft)
06/11/2011 05:30 12,2 C 95 % 1008,5 hPa 1,3 mm 6,1 km/h (2 Bft) N 360 0 min 0 W/m 11,4 C 12,2 C 10,8 km/h (2 Bft)
06/11/2011 05:35 12,2 C 95 % 1008,5 hPa 0,4 mm 3,6 km/h (1 Bft) N-NE 22 0 min 0 W/m 11,4 C 12,2 C 6,1 km/h (2 Bft)
06/11/2011 05:40 12,2 C 95 % 1008,5 hPa 0,3 mm 5,4 km/h (2 Bft) N-NO 337 0 min 0 W/m 11,4 C 12,2 C 7,9 km/h (2 Bft)
06/11/2011 05:45 12,2 C 95 % 1008,5 hPa 0,0 mm 0,4 km/h (0 Bft) N-NE 22 0 min 0 W/m 11,4 C 12,2 C 3,6 km/h (1 Bft)
06/11/2011 05:50 12,2 C 95 % 1008,6 hPa 0,3 mm 1,1 km/h (1 Bft) N 360 0 min 0 W/m 11,4 C 12,2 C 4,0 km/h (1 Bft)
06/11/2011 05:55 12,2 C 95 % 1008,5 hPa 0,0 mm 4,3 km/h (1 Bft) N 360 0 min 0 W/m 11,4 C 12,2 C 9,0 km/h (2 Bft)
06/11/2011 06:00 12,2 C 95 % 1008,5 hPa 0,0 mm 2,9 km/h (1 Bft) N-NE 22 0 min 0 W/m 11,4 C 12,2 C 6,1 km/h (2 Bft)
06/11/2011 06:05 12,2 C 95 % 1008,5 hPa 0,3 mm 2,5 km/h (1 Bft) N-NE 22 0 min 0 W/m 11,4 C 12,2 C 6,1 km/h (2 Bft)
06/11/2011 06:10 12,2 C 95 % 1008,5 hPa 0,0 mm 4,7 km/h (1 Bft) N 360 0 min 0 W/m 11,4 C 12,2 C 8,3 km/h (2 Bft)
06/11/2011 06:15 12,2 C 95 % 1008,6 hPa 0,3 mm 4,3 km/h (1 Bft) N-NE 22 0 min 0 W/m 11,4 C 12,2 C 7,6 km/h (2 Bft)
06/11/2011 06:20 12,2 C 95 % 1008,7 hPa 0,0 mm 7,9 km/h (2 Bft) N-NE 22 0 min 0 W/m 11,4 C 12,2 C 15,1 km/h (3 Bft)
06/11/2011 06:25 12,2 C 95 % 1008,7 hPa 0,0 mm 7,2 km/h (2 Bft) N 360 0 min 0 W/m 11,4 C 12,2 C 18,4 km/h (3 Bft)
06/11/2011 06:30 12,2 C 95 % 1008,8 hPa 0,0 mm 3,2 km/h (1 Bft) N-NO 337 0 min 0 W/m 11,4 C 12,2 C 11,9 km/h (2 Bft)
06/11/2011 06:35 12,2 C 95 % 1008,9 hPa 1,5 mm 1,8 km/h (1 Bft) NE 45 0 min 0 W/m 11,4 C 12,2 C 4,7 km/h (1 Bft)
06/11/2011 06:40 12,2 C 95 % 1009,0 hPa 0,0 mm 10,4 km/h (2 Bft) N 360 0 min 0 W/m 11,4 C 12,2 C 17,3 km/h (3 Bft)
06/11/2011 06:45 12,2 C 95 % 1008,9 hPa 0,0 mm 6,1 km/h (2 Bft) N 360 0 min 0 W/m 11,4 C 12,2 C 9,4 km/h (2 Bft)
06/11/2011 06:50 12,3 C 95 % 1009,0 hPa 0,0 mm 6,8 km/h (2 Bft) N-NE 22 0 min 0 W/m 11,5 C 12,3 C 10,8 km/h (2 Bft)
06/11/2011 06:55 12,3 C 96 % 1009,0 hPa 0,6 mm 4,0 km/h (1 Bft) NE 45 0 min 0 W/m 11,7 C 12,3 C 4,0 km/h (1 Bft)
06/11/2011 07:00 12,3 C 95 % 1009,1 hPa 0,0 mm 5,4 km/h (2 Bft) N-NE 22 0 min 0 W/m 11,5 C 12,3 C 14,4 km/h (3 Bft)
06/11/2011 07:05 12,3 C 96 % 1009,1 hPa 0,7 mm 5,4 km/h (2 Bft) NE 45 0 min 0 W/m 11,7 C 12,3 C 6,5 km/h (2 Bft)
06/11/2011 07:10 12,3 C 95 % 1009,2 hPa 0,0 mm 2,2 km/h (1 Bft) N-NE 22 0 min 0 W/m 11,5 C 12,3 C 6,1 km/h (2 Bft)
06/11/2011 07:15 12,3 C 96 % 1009,2 hPa 0,0 mm 6,8 km/h (2 Bft) N-NE 22 0 min 0 W/m 11,7 C 12,3 C 12,6 km/h (3 Bft)
06/11/2011 07:20 12,3 C 95 % 1009,3 hPa 0,4 mm 9,7 km/h (2 Bft) N-NE 22 0 min 0 W/m 11,5 C 12,3 C 10,8 km/h (2 Bft)
06/11/2011 07:25 12,3 C 96 % 1009,3 hPa 0,0 mm 6,1 km/h (2 Bft) N-NE 22 0 min 0 W/m 11,7 C 12,3 C 10,4 km/h (2 Bft)
06/11/2011 07:30 12,3 C 96 % 1009,4 hPa 0,0 mm 6,5 km/h (2 Bft) N-NE 22 0 min 0 W/m 11,7 C 12,3 C 13,3 km/h (3 Bft)
06/11/2011 07:35 12,3 C 96 % 1009,5 hPa 0,0 mm 6,5 km/h (2 Bft) N-NE 22 0 min 0 W/m 11,7 C 12,3 C 11,5 km/h (2 Bft)
06/11/2011 07:40 12,3 C 96 % 1009,5 hPa 0,7 mm 10,1 km/h (2 Bft) NE 45 0 min 0 W/m 11,7 C 12,3 C 10,1 km/h (2 Bft)
06/11/2011 07:45 12,3 C 96 % 1009,6 hPa 0,0 mm 6,5 km/h (2 Bft) N-NE 22 0 min 0 W/m 11,7 C 12,3 C 10,8 km/h (2 Bft)
06/11/2011 07:50 12,3 C 96 % 1009,7 hPa 0,3 mm 3,6 km/h (1 Bft) N-NE 22 0 min 0 W/m 11,7 C 12,3 C 8,3 km/h (2 Bft)
06/11/2011 07:55 12,4 C 96 % 1009,8 hPa 0,0 mm 7,2 km/h (2 Bft) N 360 0 min 0 W/m 11,8 C 12,4 C 13,3 km/h (3 Bft)
06/11/2011 08:00 12,4 C 96 % 1009,9 hPa 0,0 mm 8,3 km/h (2 Bft) NE 45 0 min 0 W/m 11,8 C 12,4 C 14,0 km/h (3 Bft)
06/11/2011 08:05 12,4 C 96 % 1009,9 hPa 0,0 mm 8,6 km/h (2 Bft) N-NE 22 0 min 0 W/m 11,8 C 12,4 C 15,5 km/h (3 Bft)
06/11/2011 08:10 12,4 C 96 % 1010,0 hPa 0,5 mm 10,4 km/h (2 Bft) N-NE 22 0 min 0 W/m 11,8 C 12,4 C 15,1 km/h (3 Bft)
06/11/2011 08:15 12,4 C 96 % 1010,1 hPa 0,0 mm 8,3 km/h (2 Bft) N-NE 22 0 min 0 W/m 11,8 C 12,4 C 10,8 km/h (2 Bft)
06/11/2011 08:20 12,4 C 96 % 1010,1 hPa 0,0 mm 9,7 km/h (2 Bft) N-NE 22 0 min 0 W/m 11,8 C 12,4 C 13,7 km/h (3 Bft)
06/11/2011 08:25 12,4 C 96 % 1010,1 hPa 0,5 mm 7,6 km/h (2 Bft) NE 45 0 min 0 W/m 11,8 C 12,4 C 11,2 km/h (2 Bft)
06/11/2011 08:30 12,4 C 96 % 1010,1 hPa 0,0 mm 13,3 km/h (3 Bft) NE 45 0 min 0 W/m 11,8 C 12,4 C 15,8 km/h (3 Bft)
06/11/2011 08:35 12,4 C 96 % 1010,2 hPa 0,0 mm 8,6 km/h (2 Bft) NE 45 0 min 0 W/m 11,8 C 12,4 C 8,6 km/h (2 Bft)
06/11/2011 08:40 12,4 C 96 % 1010,1 hPa 0,0 mm 10,4 km/h (2 Bft) E-NE 67 0 min 0 W/m 11,8 C 12,4 C 15,5 km/h (3 Bft)
06/11/2011 08:45 12,5 C 96 % 1010,1 hPa 0,0 mm 8,3 km/h (2 Bft) N-NE 22 0 min 0 W/m 11,9 C 12,5 C 15,1 km/h (3 Bft)
06/11/2011 08:50 12,5 C 96 % 1010,1 hPa 0,0 mm 8,3 km/h (2 Bft) N-NO 337 0 min 0 W/m 11,9 C 12,5 C 8,3 km/h (2 Bft)
06/11/2011 08:55 12,5 C 96 % 1010,1 hPa 0,4 mm 15,8 km/h (3 Bft) N-NE 22 0 min 0 W/m 11,9 C 12,5 C 25,6 km/h (4 Bft)
06/11/2011 09:00 12,5 C 96 % 1010,1 hPa 0,0 mm 16,2 km/h (3 Bft) N-NE 22 0 min 0 W/m 11,9 C 12,5 C 17,3 km/h (3 Bft)
06/11/2011 09:05 12,5 C 96 % 1010,2 hPa 0,0 mm 18,7 km/h (3 Bft) N-NE 22 0 min 0 W/m 11,9 C 12,5 C 29,5 km/h (5 Bft)
06/11/2011 09:10 12,5 C 96 % 1010,4 hPa 0,0 mm 13,0 km/h (3 Bft) NE 45 0 min 0 W/m 11,9 C 12,5 C 18,7 km/h (3 Bft)
06/11/2011 09:15 12,5 C 96 % 1010,7 hPa 0,0 mm 7,2 km/h (2 Bft) NE 45 0 min 0 W/m 11,9 C 12,5 C 7,2 km/h (2 Bft)
06/11/2011 09:20 12,5 C 96 % 1010,7 hPa 0,0 mm 15,8 km/h (3 Bft) NE 45 0 min 0 W/m 11,9 C 12,5 C 15,8 km/h (3 Bft)
06/11/2011 09:25 12,5 C 96 % 1010,7 hPa 0,0 mm 7,9 km/h (2 Bft) N 360 0 min 0 W/m 11,9 C 12,5 C 12,6 km/h (3 Bft)
06/11/2011 09:30 12,5 C 96 % 1010,8 hPa 0,6 mm 11,2 km/h (2 Bft) N-NE 22 0 min 0 W/m 11,9 C 12,5 C 11,2 km/h (2 Bft)
06/11/2011 09:35 12,5 C 96 % 1011,0 hPa 0,0 mm 14,0 km/h (3 Bft) N-NE 22 0 min 0 W/m 11,9 C 12,5 C 14,0 km/h (3 Bft)
06/11/2011 09:40 12,5 C 96 % 1011,1 hPa 0,0 mm 10,4 km/h (2 Bft) N-NE 22 0 min 0 W/m 11,9 C 12,5 C 16,2 km/h (3 Bft)
06/11/2011 09:45 12,6 C 96 % 1011,1 hPa 0,3 mm 8,3 km/h (2 Bft) N-NE 22 0 min 0 W/m 12,0 C 12,6 C 15,5 km/h (3 Bft)
06/11/2011 09:50 12,6 C 96 % 1011,2 hPa 0,0 mm 15,1 km/h (3 Bft) N-NE 22 0 min 0 W/m 12,0 C 12,6 C 22,7 km/h (4 Bft)
06/11/2011 09:55 12,6 C 96 % 1011,3 hPa 0,0 mm 7,6 km/h (2 Bft) NE 45 0 min 0 W/m 12,0 C 12,6 C 11,9 km/h (2 Bft)
06/11/2011 10:00 12,6 C 96 % 1011,3 hPa 0,0 mm 7,9 km/h (2 Bft) N-NE 22 0 min 0 W/m 12,0 C 12,6 C 8,6 km/h (2 Bft)
06/11/2011 10:05 12,6 C 96 % 1011,3 hPa 0,0 mm 11,5 km/h (2 Bft) N-NE 22 0 min 0 W/m 12,0 C 12,6 C 17,3 km/h (3 Bft)
06/11/2011 10:10 12,6 C 96 % 1011,3 hPa 1,1 mm 9,7 km/h (2 Bft) N-NE 22 0 min 0 W/m 12,0 C 12,6 C 15,5 km/h (3 Bft)
06/11/2011 10:15 12,6 C 96 % 1011,3 hPa 0,9 mm 8,3 km/h (2 Bft) N-NE 22 0 min 0 W/m 12,0 C 12,6 C 8,3 km/h (2 Bft)
06/11/2011 10:20 12,6 C 96 % 1011,4 hPa 1,1 mm 10,1 km/h (2 Bft) NE 45 0 min 0 W/m 12,0 C 12,6 C 16,6 km/h (3 Bft)
06/11/2011 10:25 12,6 C 96 % 1011,4 hPa 0,9 mm 9,4 km/h (2 Bft) N-NE 22 0 min 0 W/m 12,0 C 12,6 C 13,3 km/h (3 Bft)
06/11/2011 10:30 12,6 C 96 % 1011,4 hPa 0,0 mm 9,4 km/h (2 Bft) N-NE 22 0 min 0 W/m 12,0 C 12,6 C 12,6 km/h (3 Bft)
06/11/2011 10:35 12,7 C 96 % 1011,5 hPa 1,8 mm 10,8 km/h (2 Bft) NE 45 0 min 0 W/m 12,1 C 12,7 C 14,0 km/h (3 Bft)
06/11/2011 10:40 12,7 C 96 % 1011,5 hPa 0,0 mm 5,4 km/h (2 Bft) NE 45 0 min 0 W/m 12,1 C 12,7 C 7,2 km/h (2 Bft)
06/11/2011 10:45 12,8 C 96 % 1011,7 hPa 0,0 mm 11,9 km/h (2 Bft) N 360 0 min 0 W/m 12,2 C 12,8 C 21,2 km/h (4 Bft)
06/11/2011 10:50 12,8 C 96 % 1011,8 hPa 0,0 mm 9,4 km/h (2 Bft) N-NE 22 0 min 0 W/m 12,2 C 12,8 C 9,4 km/h (2 Bft)
06/11/2011 10:55 12,8 C 96 % 1011,8 hPa 0,0 mm 7,9 km/h (2 Bft) N 360 0 min 0 W/m 12,2 C 12,8 C 11,5 km/h (2 Bft)
06/11/2011 11:00 12,8 C 96 % 1011,9 hPa 0,0 mm 9,0 km/h (2 Bft) N 360 0 min 0 W/m 12,2 C 12,8 C 9,0 km/h (2 Bft)
06/11/2011 11:05 12,8 C 96 % 1011,9 hPa 0,0 mm 7,9 km/h (2 Bft) NE 45 0 min 0 W/m 12,2 C 12,8 C 11,9 km/h (2 Bft)
06/11/2011 11:10 12,8 C 96 % 1011,8 hPa 0,0 mm 7,9 km/h (2 Bft) N 360 0 min 0 W/m 12,2 C 12,8 C 10,8 km/h (2 Bft)
06/11/2011 11:15 12,8 C 96 % 1012,0 hPa 0,0 mm 11,2 km/h (2 Bft) E-NE 67 0 min 0 W/m 12,2 C 12,8 C 15,5 km/h (3 Bft)
06/11/2011 11:20 12,8 C 96 % 1012,1 hPa 0,0 mm 13,0 km/h (3 Bft) N-NE 22 0 min 0 W/m 12,2 C 12,8 C 16,2 km/h (3 Bft)
06/11/2011 11:25 12,8 C 96 % 1012,1 hPa 0,0 mm 9,4 km/h (2 Bft) NE 45 0 min 0 W/m 12,2 C 12,8 C 9,4 km/h (2 Bft)
06/11/2011 11:30 12,8 C 96 % 1012,1 hPa 0,0 mm 5,8 km/h (2 Bft) NE 45 0 min 0 W/m 12,2 C 12,8 C 5,8 km/h (2 Bft)
06/11/2011 11:35 12,8 C 96 % 1012,1 hPa 0,0 mm 10,1 km/h (2 Bft) NE 45 0 min 0 W/m 12,2 C 12,8 C 10,8 km/h (2 Bft)
06/11/2011 11:40 12,8 C 96 % 1012,2 hPa 0,0 mm 6,8 km/h (2 Bft) NE 45 0 min 0 W/m 12,2 C 12,8 C 10,1 km/h (2 Bft)
06/11/2011 11:45 12,8 C 96 % 1012,2 hPa 0,0 mm 7,2 km/h (2 Bft) N-NE 22 0 min 0 W/m 12,2 C 12,8 C 11,9 km/h (2 Bft)
06/11/2011 11:50 12,8 C 96 % 1012,2 hPa 0,0 mm 10,1 km/h (2 Bft) N 360 0 min 0 W/m 12,2 C 12,8 C 13,7 km/h (3 Bft)
06/11/2011 11:55 12,8 C 96 % 1012,1 hPa 0,0 mm 7,9 km/h (2 Bft) N-NE 22 0 min 0 W/m 12,2 C 12,8 C 12,2 km/h (2 Bft)
06/11/2011 12:00 12,9 C 96 % 1012,1 hPa 0,0 mm 11,2 km/h (2 Bft) N-NE 22 0 min 0 W/m 12,3 C 12,9 C 18,7 km/h (3 Bft)
06/11/2011 12:05 12,9 C 95 % 1012,1 hPa 0,0 mm 10,8 km/h (2 Bft) N-NE 22 0 min 0 W/m 12,1 C 12,9 C 19,1 km/h (3 Bft)
06/11/2011 12:10 12,9 C 95 % 1012,0 hPa 0,0 mm 7,6 km/h (2 Bft) N-NE 22 0 min 0 W/m 12,1 C 12,9 C 13,0 km/h (3 Bft)
06/11/2011 12:15 12,9 C 95 % 1012,0 hPa 0,0 mm 11,9 km/h (2 Bft) NE 45 0 min 0 W/m 12,1 C 12,9 C 11,9 km/h (2 Bft)
06/11/2011 12:20 13,0 C 95 % 1012,0 hPa 0,0 mm 10,1 km/h (2 Bft) N 360 0 min 0 W/m 12,2 C 13,0 C 15,8 km/h (3 Bft)
06/11/2011 12:25 13,1 C 95 % 1011,9 hPa 0,0 mm 10,1 km/h (2 Bft) N-NE 22 0 min 0 W/m 12,3 C 13,1 C 13,0 km/h (3 Bft)
06/11/2011 12:30 13,1 C 95 % 1011,8 hPa 0,0 mm 10,4 km/h (2 Bft) N-NE 22 0 min 0 W/m 12,3 C 13,1 C 15,8 km/h (3 Bft)
06/11/2011 12:35 13,1 C 95 % 1011,8 hPa 0,0 mm 12,2 km/h (2 Bft) N 360 0 min 0 W/m 12,3 C 13,1 C 17,3 km/h (3 Bft)
06/11/2011 12:40 13,1 C 95 % 1011,7 hPa 0,0 mm 14,4 km/h (3 Bft) NE 45 0 min 0 W/m 12,3 C 13,1 C 16,6 km/h (3 Bft)
06/11/2011 12:45 13,2 C 95 % 1011,7 hPa 0,0 mm 11,9 km/h (2 Bft) NE 45 0 min 0 W/m 12,4 C 13,2 C 14,4 km/h (3 Bft)
06/11/2011 12:50 13,1 C 95 % 1011,6 hPa 0,0 mm 6,5 km/h (2 Bft) N-NE 22 0 min 0 W/m 12,3 C 13,1 C 8,6 km/h (2 Bft)
06/11/2011 12:55 13,2 C 95 % 1011,5 hPa 0,0 mm 9,4 km/h (2 Bft) N-NE 22 0 min 0 W/m 12,4 C 13,2 C 14,0 km/h (3 Bft)
06/11/2011 13:00 13,2 C 95 % 1011,5 hPa 0,0 mm 9,0 km/h (2 Bft) N 360 0 min 0 W/m 12,4 C 13,2 C 14,4 km/h (3 Bft)
06/11/2011 13:05 13,3 C 95 % 1011,4 hPa 0,0 mm 6,8 km/h (2 Bft) E 90 0 min 0 W/m 12,5 C 13,3 C 13,7 km/h (3 Bft)
06/11/2011 13:10 13,4 C 95 % 1011,5 hPa 0,0 mm 12,6 km/h (3 Bft) NE 45 0 min 0 W/m 12,6 C 13,4 C 23,0 km/h (4 Bft)
06/11/2011 13:15 13,4 C 95 % 1011,5 hPa 0,0 mm 11,9 km/h (2 Bft) N-NE 22 0 min 0 W/m 12,6 C 13,4 C 22,3 km/h (4 Bft)
06/11/2011 13:20 13,4 C 95 % 1011,6 hPa 0,0 mm 11,5 km/h (2 Bft) N-NE 22 0 min 0 W/m 12,6 C 13,4 C 14,0 km/h (3 Bft)
06/11/2011 13:25 13,4 C 95 % 1011,6 hPa 0,0 mm 11,2 km/h (2 Bft) N 360 0 min 0 W/m 12,6 C 13,4 C 15,1 km/h (3 Bft)
06/11/2011 13:30 13,4 C 95 % 1011,6 hPa 0,0 mm 9,4 km/h (2 Bft) N-NE 22 0 min 0 W/m 12,6 C 13,4 C 9,4 km/h (2 Bft)
06/11/2011 13:35 13,3 C 94 % 1011,7 hPa 0,0 mm 5,4 km/h (2 Bft) NO 315 0 min 0 W/m 12,4 C 13,3 C 5,4 km/h (2 Bft)
06/11/2011 13:40 13,3 C 94 % 1011,6 hPa 0,0 mm 8,6 km/h (2 Bft) N-NE 22 0 min 0 W/m 12,4 C 13,3 C 9,7 km/h (2 Bft)
06/11/2011 13:45 13,3 C 94 % 1011,7 hPa 0,0 mm 9,4 km/h (2 Bft) N 360 0 min 0 W/m 12,4 C 13,3 C 18,4 km/h (3 Bft)
06/11/2011 13:50 13,3 C 94 % 1011,6 hPa 0,0 mm 7,6 km/h (2 Bft) N-NE 22 0 min 0 W/m 12,4 C 13,3 C 10,8 km/h (2 Bft)
06/11/2011 13:55 13,3 C 94 % 1011,8 hPa 0,0 mm 5,4 km/h (2 Bft) N-NE 22 0 min 0 W/m 12,4 C 13,3 C 8,3 km/h (2 Bft)
06/11/2011 14:00 13,3 C 94 % 1011,8 hPa 0,0 mm 5,4 km/h (2 Bft) N 360 0 min 0 W/m 12,4 C 13,3 C 7,2 km/h (2 Bft)
06/11/2011 14:05 13,3 C 94 % 1011,9 hPa 0,0 mm 3,6 km/h (1 Bft) NE 45 0 min 0 W/m 12,4 C 13,3 C 6,8 km/h (2 Bft)
06/11/2011 14:10 13,3 C 93 % 1011,8 hPa 0,0 mm 7,9 km/h (2 Bft) N 360 0 min 0 W/m 12,2 C 13,3 C 12,6 km/h (3 Bft)
06/11/2011 14:15 13,3 C 93 % 1011,8 hPa 0,0 mm 6,1 km/h (2 Bft) N 360 0 min 0 W/m 12,2 C 13,3 C 10,8 km/h (2 Bft)
06/11/2011 14:20 13,3 C 93 % 1011,9 hPa 0,0 mm 9,7 km/h (2 Bft) N-NE 22 0 min 0 W/m 12,2 C 13,3 C 14,0 km/h (3 Bft)
06/11/2011 14:25 13,3 C 93 % 1011,9 hPa 0,0 mm 4,3 km/h (1 Bft) N 360 0 min 0 W/m 12,2 C 13,3 C 8,6 km/h (2 Bft)
06/11/2011 14:30 13,3 C 93 % 1011,9 hPa 0,0 mm 3,2 km/h (1 Bft) N 360 0 min 0 W/m 12,2 C 13,3 C 6,8 km/h (2 Bft)
06/11/2011 14:35 13,3 C 93 % 1012,0 hPa 0,0 mm 13,7 km/h (3 Bft) NE 45 0 min 0 W/m 12,2 C 13,3 C 18,7 km/h (3 Bft)
06/11/2011 14:40 13,3 C 92 % 1011,9 hPa 0,0 mm 10,1 km/h (2 Bft) NO 315 0 min 0 W/m 12,0 C 13,3 C 10,1 km/h (2 Bft)
06/11/2011 14:45 13,3 C 92 % 1012,0 hPa 0,0 mm 2,9 km/h (1 Bft) N-NE 22 0 min 0 W/m 12,0 C 13,3 C 2,9 km/h (1 Bft)
06/11/2011 14:50 13,3 C 92 % 1012,0 hPa 0,0 mm 6,1 km/h (2 Bft) N-NE 22 0 min 0 W/m 12,0 C 13,3 C 14,0 km/h (3 Bft)
06/11/2011 14:55 13,3 C 92 % 1011,9 hPa 0,0 mm 6,8 km/h (2 Bft) N-NE 22 0 min 0 W/m 12,0 C 13,3 C 11,2 km/h (2 Bft)
06/11/2011 15:00 13,3 C 92 % 1012,0 hPa 0,0 mm 13,0 km/h (3 Bft) N-NE 22 0 min 0 W/m 12,0 C 13,3 C 24,1 km/h (4 Bft)
06/11/2011 15:05 13,3 C 92 % 1011,9 hPa 0,0 mm 6,8 km/h (2 Bft) N-NO 337 0 min 0 W/m 12,0 C 13,3 C 12,6 km/h (3 Bft)
06/11/2011 15:10 13,3 C 92 % 1011,9 hPa 0,0 mm 4,3 km/h (1 Bft) N 360 0 min 0 W/m 12,0 C 13,3 C 9,4 km/h (2 Bft)
06/11/2011 15:15 13,3 C 92 % 1011,9 hPa 0,0 mm 6,5 km/h (2 Bft) NE 45 0 min 0 W/m 12,0 C 13,3 C 6,5 km/h (2 Bft)
06/11/2011 15:20 13,2 C 92 % 1011,9 hPa 0,0 mm 8,6 km/h (2 Bft) N-NO 337 0 min 0 W/m 11,9 C 13,2 C 16,6 km/h (3 Bft)
06/11/2011 15:25 13,3 C 92 % 1011,9 hPa 0,0 mm 6,1 km/h (2 Bft) N-NE 22 0 min 0 W/m 12,0 C 13,3 C 6,1 km/h (2 Bft)
06/11/2011 15:30 13,3 C 92 % 1012,0 hPa 0,0 mm 6,1 km/h (2 Bft) N 360 0 min 0 W/m 12,0 C 13,3 C 7,2 km/h (2 Bft)
06/11/2011 15:35 13,2 C 92 % 1012,0 hPa 0,0 mm 5,0 km/h (1 Bft) N-NO 337 0 min 0 W/m 11,9 C 13,2 C 8,3 km/h (2 Bft)
06/11/2011 15:40 13,3 C 92 % 1011,9 hPa 0,0 mm 5,8 km/h (2 Bft) N 360 0 min 0 W/m 12,0 C 13,3 C 8,3 km/h (2 Bft)
06/11/2011 15:45 13,2 C 92 % 1011,9 hPa 0,0 mm 5,4 km/h (2 Bft) NE 45 0 min 0 W/m 11,9 C 13,2 C 14,4 km/h (3 Bft)
06/11/2011 15:50 13,2 C 91 % 1011,9 hPa 0,0 mm 3,6 km/h (1 Bft) NE 45 0 min 0 W/m 11,8 C 13,2 C 7,2 km/h (2 Bft)
06/11/2011 15:55 13,2 C 91 % 1012,0 hPa 0,0 mm 5,0 km/h (1 Bft) N 360 0 min 0 W/m 11,8 C 13,2 C 6,5 km/h (2 Bft)
06/11/2011 16:00 13,2 C 91 % 1012,1 hPa 0,0 mm 7,9 km/h (2 Bft) N 360 0 min 0 W/m 11,8 C 13,2 C 11,9 km/h (2 Bft)
06/11/2011 16:05 13,2 C 91 % 1012,1 hPa 0,0 mm 4,0 km/h (1 Bft) N-NE 22 0 min 0 W/m 11,8 C 13,2 C 4,3 km/h (1 Bft)
06/11/2011 16:10 13,2 C 91 % 1012,2 hPa 0,0 mm 1,8 km/h (1 Bft) N 360 0 min 0 W/m 11,8 C 13,2 C 7,2 km/h (2 Bft)
06/11/2011 16:15 13,2 C 91 % 1012,3 hPa 0,0 mm 1,8 km/h (1 Bft) N 360 0 min 0 W/m 11,8 C 13,2 C 7,6 km/h (2 Bft)
06/11/2011 16:20 13,2 C 91 % 1012,4 hPa 0,0 mm 4,3 km/h (1 Bft) N-NE 22 0 min 0 W/m 11,8 C 13,2 C 4,3 km/h (1 Bft)
06/11/2011 16:25 13,2 C 91 % 1012,3 hPa 0,0 mm 1,1 km/h (1 Bft) N 360 0 min 0 W/m 11,8 C 13,2 C 6,5 km/h (2 Bft)
06/11/2011 16:30 13,2 C 91 % 1012,5 hPa 0,0 mm 5,0 km/h (1 Bft) N-NE 22 0 min 0 W/m 11,8 C 13,2 C 6,5 km/h (2 Bft)
06/11/2011 16:35 13,2 C 91 % 1012,4 hPa 0,0 mm 4,7 km/h (1 Bft) NE 45 0 min 0 W/m 11,8 C 13,2 C 8,6 km/h (2 Bft)
06/11/2011 16:40 13,2 C 91 % 1012,4 hPa 0,0 mm 5,4 km/h (2 Bft) N 360 0 min 0 W/m 11,8 C 13,2 C 11,2 km/h (2 Bft)
06/11/2011 16:45 13,2 C 91 % 1012,4 hPa 0,0 mm 1,1 km/h (1 Bft) NE 45 0 min 0 W/m 11,8 C 13,2 C 1,1 km/h (1 Bft)
06/11/2011 16:50 13,2 C 91 % 1012,4 hPa 0,0 mm 0,4 km/h (0 Bft) E-NE 67 0 min 0 W/m 11,8 C 13,2 C 0,4 km/h (0 Bft)
06/11/2011 16:55 13,1 C 91 % 1012,4 hPa 0,0 mm 4,0 km/h (1 Bft) N 360 0 min 0 W/m 11,7 C 13,1 C 4,0 km/h (1 Bft)
06/11/2011 17:00 13,1 C 91 % 1012,5 hPa 0,0 mm 1,8 km/h (1 Bft) N-NE 22 0 min 0 W/m 11,7 C 13,1 C 4,0 km/h (1 Bft)
06/11/2011 17:05 13,1 C 91 % 1012,5 hPa 0,0 mm 8,3 km/h (2 Bft) NE 45 0 min 0 W/m 11,7 C 13,1 C 11,9 km/h (2 Bft)
06/11/2011 17:10 13,1 C 91 % 1012,6 hPa 0,0 mm 3,2 km/h (1 Bft) N-NE 22 0 min 0 W/m 11,7 C 13,1 C 4,3 km/h (1 Bft)
06/11/2011 17:15 13,1 C 91 % 1012,6 hPa 0,0 mm 7,6 km/h (2 Bft) NE 45 0 min 0 W/m 11,7 C 13,1 C 11,2 km/h (2 Bft)
06/11/2011 17:20 13,1 C 91 % 1012,6 hPa 0,0 mm 3,2 km/h (1 Bft) N-NE 22 0 min 0 W/m 11,7 C 13,1 C 7,6 km/h (2 Bft)
06/11/2011 17:25 13,1 C 91 % 1012,7 hPa 0,0 mm 7,9 km/h (2 Bft) NE 45 0 min 0 W/m 11,7 C 13,1 C 15,8 km/h (3 Bft)
06/11/2011 17:30 13,1 C 91 % 1012,8 hPa 0,0 mm 2,2 km/h (1 Bft) N-NO 337 0 min 0 W/m 11,7 C 13,1 C 4,0 km/h (1 Bft)
06/11/2011 17:35 13,1 C 91 % 1012,9 hPa 0,0 mm 4,3 km/h (1 Bft) N-NE 22 0 min 0 W/m 11,7 C 13,1 C 7,2 km/h (2 Bft)
06/11/2011 17:40 13,1 C 91 % 1013,0 hPa 0,0 mm 4,3 km/h (1 Bft) N 360 0 min 0 W/m 11,7 C 13,1 C 8,6 km/h (2 Bft)
06/11/2011 17:45 13,1 C 91 % 1013,1 hPa 0,0 mm 5,4 km/h (2 Bft) N-NE 22 0 min 0 W/m 11,7 C 13,1 C 5,4 km/h (2 Bft)
06/11/2011 17:50 13,1 C 91 % 1013,1 hPa 0,0 mm 3,6 km/h (1 Bft) N 360 0 min 0 W/m 11,7 C 13,1 C 3,6 km/h (1 Bft)
06/11/2011 17:55 13,1 C 91 % 1013,0 hPa 0,0 mm 2,2 km/h (1 Bft) N-NE 22 0 min 0 W/m 11,7 C 13,1 C 4,0 km/h (1 Bft)
06/11/2011 18:00 13,1 C 91 % 1013,2 hPa 0,0 mm 6,1 km/h (2 Bft) N-NE 22 0 min 0 W/m 11,7 C 13,1 C 13,3 km/h (3 Bft)
06/11/2011 18:05 13,0 C 91 % 1013,2 hPa 0,0 mm 3,6 km/h (1 Bft) N 360 0 min 0 W/m 11,6 C 13,0 C 7,9 km/h (2 Bft)
06/11/2011 18:10 12,9 C 91 % 1013,2 hPa 0,0 mm 6,5 km/h (2 Bft) N-NE 22 0 min 0 W/m 11,5 C 12,9 C 6,5 km/h (2 Bft)
06/11/2011 18:15 12,9 C 91 % 1013,2 hPa 0,0 mm 2,2 km/h (1 Bft) N-NO 337 0 min 0 W/m 11,5 C 12,9 C 2,2 km/h (1 Bft)
06/11/2011 18:20 12,9 C 91 % 1013,3 hPa 0,0 mm 2,9 km/h (1 Bft) N 360 0 min 0 W/m 11,5 C 12,9 C 3,6 km/h (1 Bft)
06/11/2011 18:25 12,9 C 92 % 1013,2 hPa 0,0 mm 2,2 km/h (1 Bft) E-NE 67 0 min 0 W/m 11,6 C 12,9 C 6,5 km/h (2 Bft)
06/11/2011 18:30 12,9 C 92 % 1013,3 hPa 0,0 mm 2,2 km/h (1 Bft) N-NO 337 0 min 0 W/m 11,6 C 12,9 C 7,9 km/h (2 Bft)
06/11/2011 18:35 12,9 C 92 % 1013,4 hPa 0,0 mm 3,2 km/h (1 Bft) N-NE 22 0 min 0 W/m 11,6 C 12,9 C 6,5 km/h (2 Bft)
06/11/2011 18:40 12,9 C 92 % 1013,4 hPa 0,0 mm 4,7 km/h (1 Bft) N-NE 22 0 min 0 W/m 11,6 C 12,9 C 8,6 km/h (2 Bft)
06/11/2011 18:45 12,9 C 92 % 1013,3 hPa 0,0 mm 1,4 km/h (1 Bft) N 360 0 min 0 W/m 11,6 C 12,9 C 2,9 km/h (1 Bft)
06/11/2011 18:50 12,8 C 92 % 1013,3 hPa 0,0 mm 0,7 km/h (0 Bft) N-NO 337 0 min 0 W/m 11,5 C 12,8 C 4,3 km/h (1 Bft)
06/11/2011 18:55 12,8 C 92 % 1013,3 hPa 0,0 mm 4,7 km/h (1 Bft) N 360 0 min 0 W/m 11,5 C 12,8 C 6,1 km/h (2 Bft)
06/11/2011 19:00 12,8 C 92 % 1013,4 hPa 0,0 mm 2,5 km/h (1 Bft) N-NE 22 0 min 0 W/m 11,5 C 12,8 C 4,0 km/h (1 Bft)
06/11/2011 19:05 12,8 C 92 % 1013,4 hPa 0,0 mm 2,5 km/h (1 Bft) N-NE 22 0 min 0 W/m 11,5 C 12,8 C 6,5 km/h (2 Bft)
06/11/2011 19:10 12,8 C 92 % 1013,5 hPa 0,0 mm 5,4 km/h (2 Bft) N-NE 22 0 min 0 W/m 11,5 C 12,8 C 6,8 km/h (2 Bft)
06/11/2011 19:15 12,8 C 92 % 1013,4 hPa 0,0 mm 4,3 km/h (1 Bft) N-NE 22 0 min 0 W/m 11,5 C 12,8 C 9,0 km/h (2 Bft)
06/11/2011 19:20 12,8 C 92 % 1013,6 hPa 0,0 mm 11,2 km/h (2 Bft) N-NE 22 0 min 0 W/m 11,5 C 12,8 C 11,2 km/h (2 Bft)
06/11/2011 19:25 12,8 C 92 % 1013,5 hPa 0,0 mm 6,1 km/h (2 Bft) N 360 0 min 0 W/m 11,5 C 12,8 C 8,6 km/h (2 Bft)
06/11/2011 19:30 12,8 C 92 % 1013,5 hPa 0,0 mm 3,6 km/h (1 Bft) N-NO 337 0 min 0 W/m 11,5 C 12,8 C 6,1 km/h (2 Bft)
06/11/2011 19:35 12,8 C 92 % 1013,6 hPa 0,0 mm 7,6 km/h (2 Bft) N 360 0 min 0 W/m 11,5 C 12,8 C 7,6 km/h (2 Bft)
06/11/2011 19:40 12,8 C 92 % 1013,6 hPa 0,0 mm 2,9 km/h (1 Bft) N-NO 337 0 min 0 W/m 11,5 C 12,8 C 7,9 km/h (2 Bft)
06/11/2011 19:45 12,8 C 92 % 1013,7 hPa 0,0 mm 7,9 km/h (2 Bft) N 360 0 min 0 W/m 11,5 C 12,8 C 8,6 km/h (2 Bft)
06/11/2011 19:50 12,8 C 92 % 1013,7 hPa 0,0 mm 7,2 km/h (2 Bft) N-NE 22 0 min 0 W/m 11,5 C 12,8 C 15,1 km/h (3 Bft)
06/11/2011 19:55 12,8 C 92 % 1013,7 hPa 0,0 mm 6,1 km/h (2 Bft) N-NE 22 0 min 0 W/m 11,5 C 12,8 C 12,2 km/h (2 Bft)
06/11/2011 20:00 12,8 C 91 % 1013,7 hPa 0,0 mm 7,2 km/h (2 Bft) N 360 0 min 0 W/m 11,4 C 12,8 C 9,0 km/h (2 Bft)
06/11/2011 20:05 12,8 C 91 % 1013,7 hPa 0,0 mm 9,0 km/h (2 Bft) N-NE 22 0 min 0 W/m 11,4 C 12,8 C 9,0 km/h (2 Bft)
06/11/2011 20:10 12,7 C 91 % 1013,8 hPa 0,0 mm 5,8 km/h (2 Bft) NO 315 0 min 0 W/m 11,3 C 12,7 C 15,5 km/h (3 Bft)
06/11/2011 20:15 12,8 C 91 % 1013,8 hPa 0,0 mm 11,2 km/h (2 Bft) N 360 0 min 0 W/m 11,4 C 12,8 C 11,5 km/h (2 Bft)
06/11/2011 20:20 12,7 C 90 % 1013,8 hPa 0,0 mm 7,6 km/h (2 Bft) N 360 0 min 0 W/m 11,1 C 12,7 C 14,0 km/h (3 Bft)
06/11/2011 20:25 12,7 C 90 % 1013,9 hPa 0,0 mm 3,2 km/h (1 Bft) NE 45 0 min 0 W/m 11,1 C 12,7 C 6,5 km/h (2 Bft)
06/11/2011 20:30 12,7 C 90 % 1013,9 hPa 0,0 mm 6,8 km/h (2 Bft) N 360 0 min 0 W/m 11,1 C 12,7 C 10,4 km/h (2 Bft)
06/11/2011 20:35 12,6 C 90 % 1013,9 hPa 0,0 mm 5,8 km/h (2 Bft) N-NE 22 0 min 0 W/m 11,0 C 12,6 C 9,0 km/h (2 Bft)
06/11/2011 20:40 12,6 C 90 % 1014,0 hPa 0,0 mm 6,8 km/h (2 Bft) N-NO 337 0 min 0 W/m 11,0 C 12,6 C 6,8 km/h (2 Bft)
06/11/2011 20:45 12,6 C 90 % 1014,0 hPa 0,0 mm 5,0 km/h (1 Bft) N 360 0 min 0 W/m 11,0 C 12,6 C 5,0 km/h (1 Bft)
06/11/2011 20:50 12,6 C 90 % 1014,0 hPa 0,0 mm 5,0 km/h (1 Bft) N-NE 22 0 min 0 W/m 11,0 C 12,6 C 6,5 km/h (2 Bft)
06/11/2011 20:55 12,6 C 90 % 1014,1 hPa 0,0 mm 6,5 km/h (2 Bft) N 360 0 min 0 W/m 11,0 C 12,6 C 6,5 km/h (2 Bft)
06/11/2011 21:00 12,6 C 90 % 1014,0 hPa 0,0 mm 10,1 km/h (2 Bft) N-NE 22 0 min 0 W/m 11,0 C 12,6 C 13,0 km/h (3 Bft)
06/11/2011 21:05 12,6 C 90 % 1014,1 hPa 0,0 mm 6,5 km/h (2 Bft) N-NE 22 0 min 0 W/m 11,0 C 12,6 C 10,1 km/h (2 Bft)
06/11/2011 21:10 12,6 C 90 % 1014,1 hPa 0,0 mm 5,4 km/h (2 Bft) N-NE 22 0 min 0 W/m 11,0 C 12,6 C 5,4 km/h (2 Bft)
06/11/2011 21:15 12,5 C 90 % 1014,2 hPa 0,0 mm 10,4 km/h (2 Bft) NE 45 0 min 0 W/m 10,9 C 12,5 C 19,4 km/h (3 Bft)
06/11/2011 21:20 12,5 C 90 % 1014,2 hPa 0,0 mm 10,4 km/h (2 Bft) N-NE 22 0 min 0 W/m 10,9 C 12,5 C 10,8 km/h (2 Bft)
06/11/2011 21:25 12,5 C 89 % 1014,3 hPa 0,0 mm 5,4 km/h (2 Bft) N 360 0 min 0 W/m 10,7 C 12,5 C 8,3 km/h (2 Bft)
06/11/2011 21:30 12,5 C 89 % 1014,3 hPa 0,0 mm 3,6 km/h (1 Bft) N-NE 22 0 min 0 W/m 10,7 C 12,5 C 9,0 km/h (2 Bft)
06/11/2011 21:35 12,4 C 89 % 1014,4 hPa 0,0 mm 5,4 km/h (2 Bft) NE 45 0 min 0 W/m 10,6 C 12,4 C 7,9 km/h (2 Bft)
06/11/2011 21:40 12,5 C 89 % 1014,5 hPa 0,0 mm 11,9 km/h (2 Bft) N-NE 22 0 min 0 W/m 10,7 C 12,5 C 15,1 km/h (3 Bft)
06/11/2011 21:45 12,4 C 89 % 1014,5 hPa 0,0 mm 11,5 km/h (2 Bft) NE 45 0 min 0 W/m 10,6 C 12,4 C 18,7 km/h (3 Bft)
06/11/2011 21:50 12,4 C 89 % 1014,5 hPa 0,0 mm 5,4 km/h (2 Bft) N 360 0 min 0 W/m 10,6 C 12,4 C 8,6 km/h (2 Bft)
06/11/2011 21:55 12,4 C 89 % 1014,7 hPa 0,0 mm 3,6 km/h (1 Bft) N-NE 22 0 min 0 W/m 10,6 C 12,4 C 10,1 km/h (2 Bft)
06/11/2011 22:00 12,4 C 89 % 1014,7 hPa 0,0 mm 5,8 km/h (2 Bft) NE 45 0 min 0 W/m 10,6 C 12,4 C 12,6 km/h (3 Bft)
06/11/2011 22:05 12,3 C 89 % 1014,8 hPa 0,0 mm 4,0 km/h (1 Bft) N 360 0 min 0 W/m 10,5 C 12,3 C 8,3 km/h (2 Bft)
06/11/2011 22:10 12,3 C 90 % 1014,8 hPa 0,0 mm 4,3 km/h (1 Bft) N-NE 22 0 min 0 W/m 10,7 C 12,3 C 7,2 km/h (2 Bft)
06/11/2011 22:15 12,3 C 90 % 1014,8 hPa 0,0 mm 9,7 km/h (2 Bft) NE 45 0 min 0 W/m 10,7 C 12,3 C 10,4 km/h (2 Bft)
06/11/2011 22:20 12,2 C 90 % 1014,8 hPa 0,0 mm 9,7 km/h (2 Bft) N 360 0 min 0 W/m 10,6 C 12,2 C 11,9 km/h (2 Bft)
06/11/2011 22:25 12,2 C 90 % 1014,9 hPa 0,0 mm 5,0 km/h (1 Bft) N 360 0 min 0 W/m 10,6 C 12,2 C 11,5 km/h (2 Bft)
06/11/2011 22:30 12,2 C 90 % 1014,9 hPa 0,0 mm 7,9 km/h (2 Bft) N-NE 22 0 min 0 W/m 10,6 C 12,2 C 10,4 km/h (2 Bft)
06/11/2011 22:35 12,1 C 90 % 1014,9 hPa 0,0 mm 8,3 km/h (2 Bft) N-NE 22 0 min 0 W/m 10,5 C 12,1 C 8,3 km/h (2 Bft)
06/11/2011 22:40 12,1 C 90 % 1014,9 hPa 0,0 mm 2,9 km/h (1 Bft) N 360 0 min 0 W/m 10,5 C 12,1 C 4,0 km/h (1 Bft)
06/11/2011 22:45 12,1 C 90 % 1014,9 hPa 0,0 mm 5,4 km/h (2 Bft) N-NE 22 0 min 0 W/m 10,5 C 12,1 C 9,4 km/h (2 Bft)
06/11/2011 22:50 12,1 C 90 % 1014,9 hPa 0,0 mm 5,0 km/h (1 Bft) N-NE 22 0 min 0 W/m 10,5 C 12,1 C 5,0 km/h (1 Bft)
06/11/2011 22:55 12,0 C 90 % 1014,9 hPa 0,0 mm 7,2 km/h (2 Bft) N-NE 22 0 min 0 W/m 10,4 C 12,0 C 11,9 km/h (2 Bft)
06/11/2011 23:00 11,9 C 90 % 1014,9 hPa 0,0 mm 5,4 km/h (2 Bft) NE 45 0 min 0 W/m 10,3 C 11,9 C 6,8 km/h (2 Bft)
06/11/2011 23:05 11,9 C 90 % 1015,0 hPa 0,0 mm 5,8 km/h (2 Bft) N-NE 22 0 min 0 W/m 10,3 C 11,9 C 13,7 km/h (3 Bft)
_ Min-Heure 23:05 22:05 00:05 - 04:00 - - - - 23:05 23:05 04:00
Minimum _ 11,9 C 89 % 1007,0 hPa - 0,0 km/h (0 Bft) - - - - 10,3 C 11,9 C 0,0 km/h (0 Bft)
_ Max-Heure 13:30 12:00 23:05 10:35 09:05 - - 23:05 23:05 13:30 13:30 09:05
Maximum _ 13,4 C 96 % 1015,0 hPa 1,8 mm 18,7 km/h
N-NE (3 Bft)
- - 0 min 0 W/m 12,6 C 13,4 C 29,5 km/h
N-NE (5 Bft)
Moyenne _ 12,6 C 94 % 1010,9 hPa #17,3 mm 6,3 km/h (2 Bft) N-NE - #0 min. 0 W/m 11,6 C 12,6 C 9,8 km/h (2 Bft)
Saint Bonnet de Bellac- Haute Vienne - France